Location: *
(47.6569°N, 7.4256°E)
Time: 09:04:46
(UTC+00:00)

Cosmos 1515 - Pass Details

Date: 14 December 2019
Orbit: 508 x 515 km, 82.5° (Epoch: 20 January)

Event Time Altitude Azimuth Distance (km) Brightness Sun altitude
Rises 17:32:06 0° 172° (S) 2,601 7.4 -18.1°
Reaches altitude 10° 17:34:16 10° 166° (SSE) 1,722 6.4 -18.5°
Enters shadow 17:37:11 39° 125° (SE) 773 4.2 -18.9°
